Location: Rounton
(54.4000°N, 1.3500°W)
Time: 01:18:42
(UTC+00:00)

A-11 Canister half - Pass Details

Date: 06 December 2021
Orbit: 1524 x 1684 km, 47.3° (Epoch: 19 January)

Event Time Altitude Azimuth Distance (km) Brightness Sun altitude
Exits shadow 04:39:21 47° 233° (SW) 2,114 9.3 -29.3°
Maximum altitude 04:41:54 57° 188° (S) 1,902 9.3 -28.9°
Drops below altitude 10° 04:51:26 10° 114° (ESE) 3,847 11.9 -27.5°
Sets 04:54:34 0° 110° (ESE) 4,811 12.7 -27.0°
